This is the latest recevied weather packets stored in our database for station/object PY4BN-13. If no packets are shown the sender has not sent any weather packets the latest 10 day(s).
| Time | Temp. | Humidity | Pressure | Rain* | Wind** | Luminosity | Snow |
|---|---|---|---|---|---|---|---|
| 1778174100 | 25.56° C | 55% | 906.2 hPa | - | - | - | - |
| 1778173200 | 25.56° C | 55% | 906.4 hPa | - | - | - | - |
| 1778172300 | 25.56° C | 55% | 906.4 hPa | - | - | - | - |
| 1778171400 | 25.56° C | 55% | 906.6 hPa | - | - | - | - |
| 1778170500 | 25.56° C | 55% | 906.7 hPa | - | - | - | - |
| 1778169600 | 25.56° C | 55% | 907 hPa | - | - | - | - |
| 1778168700 | 25.56° C | 55% | 907.2 hPa | - | - | - | - |
| 1778167800 | 25.56° C | 54% | 907.4 hPa | - | - | - | - |
| 1778166900 | 25.56° C | 54% | 907.7 hPa | - | - | - | - |
| 1778166000 | 25.56° C | 53% | 908 hPa | - | - | - | - |
| 1778165101 | 25.56° C | 54% | 908.1 hPa | - | - | - | - |
| 1778164200 | 25.56° C | 57% | 908.4 hPa | - | - | - | - |
| 1778163300 | 25.56° C | 55% | 908.7 hPa | - | - | - | - |
| 1778162400 | 25.56° C | 55% | 909 hPa | - | - | - | - |
| 1778161500 | 25.56° C | 55% | 909.3 hPa | - | - | - | - |
| 1778160600 | 25.56° C | 55% | 909.5 hPa | - | - | - | - |
| 1778159700 | 25.56° C | 55% | 909.7 hPa | - | - | - | - |
| 1778158800 | 25.56° C | 55% | 909.8 hPa | - | - | - | - |
| 1778157900 | 25.56° C | 57% | 909.8 hPa | - | - | - | - |
| 1778157000 | 25.56° C | 57% | 909.8 hPa | - | - | - | - |
| 1778156100 | 25.56° C | 57% | 909.9 hPa | - | - | - | - |
| 1778155200 | 25.56° C | 56% | 909.8 hPa | - | - | - | - |
| 1778154300 | 25° C | 56% | 909.7 hPa | - | - | - | - |
| 1778153400 | 25° C | 57% | 909.7 hPa | - | - | - | - |
| 1778152500 | 25° C | 57% | 909.7 hPa | - | - | - | - |
* Rain since midnight (hover to see other rain measurements)
** Current wind speed in m/s (hover to see current wind gust speed)